Regional Weather Roundup
Issued by NWS

Home | Current Version | Previous Version | Graphics & Text | Print | Product List | Glossary On
Versions: 1 2 3 4 5 6 7 8 9 10 11 12 13 14 15 16 17 18 19 20 21 22 23 24 25 26 27 28 29 30 31 32 33 34 35 36 37 38 39 40 41 42 43 44 45 46 47 48 49 50
000
ASUS43 KDTX 250801
RWRMI
MICHIGAN HOURLY REGIONAL WEATHER ROUNDUP
NATIONAL WEATHER SERVICE DETROIT/PONTIAC MI
400 AM EDT SUN SEP 25 2016

NOTE: "FAIR" INDICATES FEW OR NO CLOUDS BELOW 12,000 FEET WITH NO
SIGNIFICANT WEATHER AND/OR OBSTRUCTION TO VISIBILITY.

MIZ047>049-052>055-059>063-066>070-074>076-081>083-250900-
SOUTHEAST LOWER MICHIGAN

CITY           SKY/WX    TMP DP  RH WIND       PRES   REMARKS
ADRIAN         CLEAR     54  49  83 E5        30.21F
ALMA           CLEAR     45  45  99 W5        30.22S
ANN ARBOR      CLEAR     45  44  97 N3        30.20F
BAD AXE        CLEAR     42  41  97 CALM      30.23F
CARO           CLEAR     42  41  98 CALM      30.22F
DETROIT CITY   CLEAR     52  47  83 CALM      30.21F
DETROIT        CLEAR     53  47  79 NE3       30.21F
FLINT          CLEAR     48  45  89 E3        30.22F
GROSSE ILE     CLEAR     56  47  73 NE3       30.20F
HILLSDALE      CLEAR     52  46  82 E3        30.19F HAZE
HOWELL         CLEAR     49  46  90 CALM      30.20F

CITY           SKY/WX    TMP DP  RH WIND       PRES   REMARKS
JACKSON        CLEAR     53  48  83 CALM      30.20F
LAMBERTVILLE   CLEAR     53  49  89 CALM      30.21S
LANSING        CLEAR     51  45  79 SE3       30.21F
LAPEER         FAIR      42  42  98 CALM      30.22F
MASON          CLEAR     51  47  86 S6        30.21S
MONROE         CLEAR     53  49  87 CALM      30.19F
MT. CLEMENS    CLEAR     48  45  90 N3        30.19F
PONTIAC        CLEAR     48  44  86 CALM      30.21F
PORT HOPE        N/A     61  49  64 E14       30.22F
PORT HURON     CLEAR     45  43  93 CALM      30.22F
TRI CITIES     CLEAR     49  45  86 E3        30.23F
MIDLAND        FAIR      43  43 100 CALM      30.21F
TROY           CLEAR     54  46  74 NE3       30.23F
SAGINAW HB     CLEAR     45  43  93 CALM      30.21F
$$
MIZ043>046-050>051-056>058-064>065-071>073-077>080-250900-
SOUTHWEST LOWER MICHIGAN

CITY           SKY/WX    TMP DP  RH WIND       PRES   REMARKS
BATTLE CREEK   CLEAR     57  53  86 E5        30.19F
BENTON HARBOR  CLEAR     61  54  77 SE9       30.15S
BIG RAPIDS     CLEAR     50  47  88 CALM      30.20F
COLDWATER      CLEAR     55  54  94 E5        30.18F
FREMONT        FAIR      52  47  82 E5        30.19S
HOLLAND        CLEAR     56  52  86 E6        30.18S
GRAND RAPIDS   CLEAR     53  48  83 E7        30.19F
IONIA          FAIR      49  47  92 E5        30.19F
KALAMAZOO      CLEAR     56  52  86 CALM      30.18F
LUDINGTON      CLEAR     53  47  81 SE8       30.17F
MARSHALL       CLEAR     54  51  92 CALM      30.19F
MUSKEGON       CLEAR     55  50  83 E8        30.17F
SOUTH HAVEN    CLEAR     60  57  88 SE5       30.16S
$$
MIZ016>042-250900-
NORTHERN LOWER MICHIGAN

CITY           SKY/WX    TMP DP  RH WIND       PRES   REMARKS
ALPENA         PTCLDY    41  38  89 CALM      30.23F
BEAVER ISLAND  CLEAR     55  49  82 SE7       30.19F
BELLAIRE       CLEAR     46  45  95 CALM      30.20F
CADILLAC       CLEAR     49  43  81 SE5       30.19F
CHARLEVOIX     CLEAR     50  46  84 SE6       30.23S
FRANKFORT      PTCLDY    55  47  74 E7        30.18F
GAYLORD        CLEAR     47  42  83 SE6       30.22F
GRAYLING       CLEAR     40  39  97 CALM      30.23F
HARBOR SPRINGS CLEAR     47  44  90 NE3       30.21S
HOUGHTON LAKE  CLEAR     42  40  92 E3        30.23F
MANISTEE       CLEAR     49  46  90 E7        30.18F
OSCODA         CLEAR     41  40  95 CALM      30.22F
PELLSTON       CLEAR     40  38  93 CALM      30.22F
ROGERS CITY    PTCLDY    49  43  79 S3        30.24S
TRAVERSE CITY  CLEAR     53  46  77 VRB3      30.18F
$$
MIZ007>008-015-250900-
EASTERN UPPER MICHIGAN

CITY           SKY/WX    TMP DP  RH WIND       PRES   REMARKS
KINROSS        CLOUDY    50  45  83 S5        30.21F
MACKINAC ISLAN CLOUDY    55  46  70 S9        30.20F
NEWBERRY       CLOUDY    49  48  97 S6        30.18F
S. S. MARIE    CLOUDY    53  49  86 CALM      30.21F
MUNISING         N/A     51  48  89 S8        30.13F
$$
MIZ004>006-011>014-085-250900-
CENTRAL UPPER MICHIGAN

CITY           SKY/WX    TMP DP  RH WIND       PRES   REMARKS
MANISTIQUE     CLEAR     60  55  84 SE12      30.16F
ESCANABA       CLOUDY    64  56  75 S9        30.14F
MENOMINEE      CLEAR     62  57  83 S10       30.14F
SAWYER-GWINN   CLEAR     51  48  92 S6        30.14F
$$
MIZ001>003-009>011-084-250900-
WESTERN UPPER MICHIGAN

CITY           SKY/WX    TMP DP  RH WIND       PRES   REMARKS
IRON MOUNTAIN  CLOUDY    53  49  86 CALM      30.12F
HOUGHTON       MOCLDY    56  49  77 SE7       30.09F
COPPER HARBOR    N/A     61  53  75 VRB7      30.08F
IRONWOOD       PTCLDY    59  56  89 SE12G17   30.03F
$$

ABBREVIATIONS USED IN REMARKS
   TC - TEMPERATURE IN CELSIUS
  WCI - WIND CHILL INDEX
   HX - HEAT INDEX
  VSB - VISIBILITY




USA.gov is the U.S. government's official web portal to all federal, state and local government web resources and services.